SCP
0 0 0 0 0 0 0 0 0 0 0 0 0 0 0 0 0 0 0 0 0 0 0 0 0 0 0 0 0 0 0 2 4 5 4 5 4 3 2 1 1 1 0 0
0 0 0 0 0 0 0 0 0 0 0 0 0 0 0 0 0 0 0 0 0 0 0 0 0 0 0 0 0 0 0 1 3 6 5 5 4 3 2 1 1 1 1 1
0 0 0 0 0 0 0 0 0 0 0 0 -0 0 0 0 0 -0 0 0 0 0 0 0 0 0 0 0 0 0 1 2 2 3 4 4 6 4 3 2 1 1 1 1
0 0 0 0 0 0 0 0 0 0 -0 -0 0 0 -0 -0 -0 -0 0 0 0 0 0 0 0 0 0 0 0 0 1 1 2 3 4 4 4 4 2 2 2 2 2 1
0 0 0 0 0 0 0 0 0 0 0 0 0 0 -0 -0 0 0 0 0 0 0 0 0 0 0 0 0 0 0 1 1 2 2 2 3 3 2 2 3 3 4 2 1
0 0 0 0 0 0 0 0 0 0 0 0 -0 0 -0 -0 0 0 0 0 0 0 0 0 0 0 0 0 0 0 0 1 1 2 3 3 4 4 4 3 2 1 1 1
0 0 0 0 0 0 0 0 0 0 0 0 0 0 -0 0 0 0 0 0 0 0 0 0 0 0 0 0 0 0 0 0 1 1 1 3 2 5 3 4 3 3 1 1
0 0 0 0 0 0 0 0 0 0 0 -0 -0 0 0 0 0 0 0 0 0 0 0 0 0 0 0 0 0 0 0 0 0 0 1 1 2 2 4 5 4 4 2 1
0 0 0 0 0 0 0 0 0 0 -0 -0 0 0 0 0 0 0 0 0 0 0 0 0 0 0 0 0 0 0 0 0 1 0 1 1 2 2 3 4 6 5 2 1
0 0 0 0 0 0 0 0 0 0 0 0 0 0 0 0 0 0 0 0 0 0 0 0 0 0 0 0 0 0 0 0 0 0 1 1 1 2 1 1 2 5 3 3
0 0 0 0 0 0 0 0 0 0 0 -0 -0 -0 0 0 -0 -0 0 0 0 0 0 0 0 0 0 0 0 0 0 0 0 0 0 1 1 2 2 3 3 4 2 3
0 0 0 0 0 0 0 -0 0 0 -0 -0 -0 0 -0 0 0 0 0 0 0 -0 0 0 0 0 0 0 0 0 0 0 0 1 1 0 1 2 3 2 1 2 0 0
0 0 0 0 0 0 0 -0 0 -0 -0 0 0 0 -0 -0 0 0 0 0 -0 -0 0 0 0 0 0 0 0 0 0 1 0 1 1 1 1 1 1 0 1 0 0 0
0 0 0 0 0 -0 -0 -0 0 0 0 -0 -0 -0 -0 0 -0 0 0 0 0 0 0 0 0 0 0 0 0 0 0 0 1 1 0 1 1 1 2 0 0 0 0 0
0 0 0 0 0 0 -0 -0 -0 0 0 -0 -0 -0 -0 -0 0 0 0 0 0 0 0 0 0 0 0 0 0 0 0 0 1 1 1 1 1 2 1 1 0 0 0 0
0 0 0 0 0 0 -0 -0 0 0 0 0 0 0 0 0 0 0 0 0 0 0 0 0 0 -0 0 0 0 0 0 0 0 1 1 1 3 3 1 0 0 0 0 0
0 0 -0 0 -0 -0 0 0 0 0 0 0 0 0 0 0 0 0 0 0 0 0 0 0 0 0 -0 -0 -0 0 0 0 0 0 0 2 3 1 0 0 0 0 0 0
0 0 0 0 -0 0 0 0 0 0 0 0 0 0 0 0 0 0 0 0 0 -0 -0 0 0 0 0 0 0 0 0 0 0 0 0 2 2 1 0 0 0 0 0 0
0 0 -0 0 0 0 0 0 0 0 0 0 0 0 0 0 0 -0 0 0 -0 -0 0 0 0 0 0 0 0 0 0 0 0 1 2 2 1 0 0 0 0 0 0 0
0 0 0 0 0 0 0 0 0 0 0 0 0 0 -0 0 0 0 0 0 -0 0 0 0 0 0 0 0 0 0 0 0 1 1 2 2 1 0 0 0 0 0 0 0
0 0 0 0 0 0 0 0 0 0 0 0 0 0 -0 -0 0 -0 -0 0 0 0 0 0 0 0 0 0 0 0 0 0 1 2 2 1 0 0 0 0 0 0 0 0
0 -0 0 0 0 0 -0 0 0 0 0 0 -0 -0 -0 -0 -0 -0 -0 -0 -0 -0 0 0 0 0 0 0 0 0 0 1 2 2 1 0 0 0 0 0 0 0 0 0
0 0 0 0 0 0 0 0 0 0 0 0 -0 -0 -0 -0 -0 -0 -0 0 0 0 0 0 0 0 0 0 0 0 1 1 2 1 0 0 0 0 0 0 0 0 0 0
-0 0 0 0 0 0 0 0 0 0 0 -0 -0 -0 -0 -0 -0 0 0 0 0 0 0 0 0 0 0 0 0 0 0 0 0 0 0 0 0 0 0 0 0 0 0 0
0 0 0 0 0 -0 0 0 0 0 -0 -0 -0 -0 -0 -0 0 0 0 0 0 0 0 0 0 0 0 0 0 0 0 0 0 0 0 0 0 0 0 0 0 0 0 0
0 0 -0 0 -0 0 0 0 0 0 -0 -0 -0 0 -0 -0 -0 -0 0 0 -0 0 0 0 0 0 0 0 0 0 0 0 0 0 0 0 0 0 0 0 0 0 0 0
Wind_Speed_500mb
17 19 20 29 25 26 33 44 52 52 45 45 54 53 54 56 60 61 61 62 63 63 55 49 48 39 31 35 40 49 51 59 64 70 66 73 76 69 54 52 57 60 50 48
23 19 12 21 25 35 43 46 50 48 41 36 49 61 57 51 52 64 63 66 66 64 60 58 55 47 39 34 39 44 49 51 65 70 73 66 69 61 55 51 62 63 61 56
21 25 20 24 34 40 37 38 40 44 46 45 49 60 39 36 34 51 65 69 69 71 67 63 58 58 48 38 39 42 47 50 62 72 70 66 73 50 51 52 57 68 64 60
18 12 26 34 36 31 34 33 43 46 43 39 39 48 49 43 40 34 44 55 61 61 65 64 64 63 59 50 37 37 41 48 52 70 69 74 56 63 58 58 56 67 69 62
16 28 36 33 22 26 37 35 38 49 47 48 49 26 39 33 35 23 17 23 32 40 49 57 61 65 66 61 51 43 41 45 52 58 67 74 60 55 50 53 67 62 65 60
31 35 30 20 27 25 38 33 38 50 27 18 30 16 21 18 20 15 9 9 7 27 30 40 51 55 62 66 59 51 46 46 49 56 65 74 64 61 52 53 57 61 55 69
39 13 10 18 28 37 31 26 16 9 9 21 20 22 22 35 24 18 19 24 13 11 15 23 38 45 50 56 61 56 49 46 46 51 60 73 70 67 66 67 62 59 52 55
20 34 9 18 45 45 36 19 11 16 24 39 40 18 13 34 27 18 19 24 19 11 3 9 19 29 36 46 49 54 52 47 46 48 56 58 65 67 69 62 60 52 52 52
26 22 47 36 17 22 18 20 20 14 37 27 18 27 29 8 6 4 11 10 12 4 2 6 2 6 19 26 30 41 50 49 46 44 46 47 54 63 73 69 73 63 57 54
24 30 27 15 43 13 21 15 12 7 11 26 23 36 26 9 22 8 4 3 4 6 1 7 7 7 6 10 18 26 30 47 48 46 45 42 46 68 75 79 78 85 64 55
30 9 25 45 34 39 21 9 13 9 12 19 30 17 22 15 27 35 7 9 14 14 13 15 14 14 17 13 10 15 22 34 45 47 45 44 49 62 72 67 73 88 93 87
19 10 32 46 44 29 23 31 27 11 25 27 25 38 41 30 20 27 39 19 21 23 25 25 23 23 22 21 19 12 11 25 39 45 46 47 47 64 77 71 69 76 96 85
5 7 18 27 13 12 22 35 35 35 29 41 27 28 35 35 38 51 52 50 43 38 38 42 41 36 35 32 27 23 15 13 32 41 46 46 42 58 66 56 109 96 77 88
47 18 29 30 45 48 53 53 45 36 15 39 38 56 49 49 51 43 49 57 60 65 66 55 58 54 43 40 34 30 25 16 22 40 49 48 40 46 63 68 57 77 79 74
10 25 38 45 48 51 57 59 52 41 40 19 41 50 54 51 48 47 63 62 56 61 70 71 71 69 59 50 43 34 29 20 18 39 49 50 42 52 57 58 54 49 58 73
8 19 32 48 47 49 53 52 35 26 29 38 45 60 56 47 55 53 54 60 69 70 78 81 80 73 65 57 49 39 33 26 17 35 49 52 57 65 71 60 42 27 73 72
18 13 19 39 39 49 31 6 18 29 31 23 37 65 57 49 43 49 65 73 73 74 75 76 72 67 63 57 49 42 35 31 22 35 52 60 66 64 64 68 49 44 62 86
18 24 20 29 42 31 30 24 6 21 33 51 54 55 49 49 62 80 83 90 93 92 90 87 78 67 62 57 51 43 39 36 28 40 55 67 72 68 68 53 53 62 80 91
21 21 13 11 24 45 27 9 7 19 52 40 30 34 43 67 73 81 73 75 74 69 66 73 78 77 65 56 46 41 41 38 35 46 62 77 76 78 78 69 73 92 93 87
14 20 20 24 27 23 20 25 46 40 39 8 42 47 50 50 33 45 57 52 56 55 56 44 46 65 76 69 57 50 47 40 44 55 69 80 84 91 96 94 102 98 86 78
21 23 21 23 23 29 22 42 48 14 32 70 74 67 66 42 50 96 102 97 86 70 71 62 47 52 62 62 57 54 45 45 52 63 85 80 98 88 104 111 113 104 99 92
14 12 15 15 30 19 54 33 14 26 60 77 86 82 79 86 95 88 84 70 46 40 42 48 37 38 45 52 53 51 46 48 54 83 86 96 99 114 116 119 116 110 98 102
9 9 15 14 20 57 63 39 34 64 67 82 86 93 90 90 89 83 58 25 6 29 36 45 37 32 38 46 52 47 48 48 85 93 90 101 107 119 121 125 121 91 108 114
21 33 18 30 23 41 51 47 63 69 74 90 89 88 85 81 79 28 16 12 20 25 26 27 28 30 34 41 43 47 57 85 88 98 101 100 112 118 120 124 120 122 119 115
34 29 26 33 43 45 38 56 66 77 88 81 88 84 80 58 25 28 26 29 29 29 29 28 36 37 41 59 72 83 94 93 94 94 97 104 109 111 111 118 127 125 119 113
17 21 18 26 27 20 48 69 71 72 82 85 79 78 63 42 23 26 33 31 34 37 38 37 37 41 49 69 81 89 86 84 101 110 113 107 106 107 118 119 109 107 114 106
Wind_Direction_500mb
318 294 296 325 311 300 295 290 291 291 297 295 287 284 279 278 272 263 261 257 248 249 247 241 234 234 238 225 225 227 220 218 214 211 207 210 211 206 201 203 207 216 204 204
288 283 346 300 292 293 295 292 289 298 307 306 296 285 285 281 271 264 259 255 247 246 241 239 233 231 229 228 228 225 218 220 212 213 212 214 214 205 206 206 211 214 213 212
301 301 313 292 303 300 294 290 300 305 304 289 284 280 285 287 270 259 254 252 251 243 239 233 230 226 224 225 220 216 218 214 212 213 214 214 213 198 198 203 207 208 210 210
290 311 299 307 302 309 302 315 305 295 300 296 307 291 292 288 281 270 265 252 247 239 231 228 224 222 221 220 221 217 215 212 216 212 214 207 202 203 206 202 201 210 211 209
270 313 315 305 310 318 299 306 302 289 286 287 282 267 290 281 272 289 274 257 244 230 225 217 217 218 218 219 218 221 214 212 210 212 212 215 210 210 209 203 205 204 207 211
272 278 276 294 309 290 302 291 296 280 276 276 279 309 301 316 345 337 346 26 328 220 213 214 215 217 219 219 219 219 218 216 211 211 219 213 212 204 205 198 201 200 200 208
315 264 247 286 302 304 304 310 296 274 223 274 339 293 295 305 318 318 315 296 278 225 231 213 214 219 221 221 222 222 220 219 214 213 213 218 219 214 208 205 197 195 192 199
313 314 354 317 304 296 297 298 271 296 308 305 313 280 309 331 308 279 300 269 244 230 316 256 232 224 226 225 226 227 220 219 218 214 216 217 223 220 208 198 191 192 191 197
317 288 317 303 322 307 308 269 293 283 268 265 251 252 241 198 76 93 49 25 208 193 358 22 5 233 237 238 228 231 224 219 218 215 217 217 229 223 212 207 202 198 209 206
298 301 304 287 311 279 238 275 277 222 281 298 294 307 293 17 348 42 84 35 171 192 322 27 22 358 323 267 243 235 222 217 218 219 221 219 223 223 221 216 208 201 201 204
312 248 274 301 291 300 279 249 236 274 273 287 299 285 19 341 311 305 317 277 286 289 290 315 326 330 340 335 290 253 232 215 214 217 221 221 218 218 208 212 202 188 201 208
322 276 281 298 289 268 285 287 286 262 278 289 290 283 279 292 313 322 303 274 267 276 279 286 300 311 313 321 320 316 290 219 216 216 214 219 219 213 217 218 214 202 204 201
301 265 298 299 293 183 285 302 290 282 280 272 265 271 298 303 300 290 289 281 264 265 271 280 285 290 296 303 301 301 307 264 217 214 216 219 214 211 216 222 207 201 195 195
289 260 263 276 289 304 297 293 282 271 265 286 282 290 301 295 290 295 295 290 284 283 280 273 275 279 281 285 287 285 289 297 236 214 216 220 211 196 194 188 206 196 196 194
266 275 293 288 288 288 285 287 295 289 276 273 287 290 293 305 310 305 300 294 286 278 268 266 269 272 272 271 275 278 273 277 262 216 212 213 208 189 195 190 192 204 219 196
251 285 296 287 286 290 304 303 294 291 286 284 286 289 290 309 299 295 288 280 274 269 269 266 264 263 262 263 261 265 264 264 258 217 210 203 198 194 199 195 191 224 208 210
267 261 288 289 302 308 291 356 300 285 290 279 280 290 301 294 292 295 291 283 278 275 270 265 262 257 256 249 251 254 258 256 251 215 205 203 195 200 186 196 201 223 204 179
249 262 273 287 305 296 326 3 315 250 267 284 291 287 290 293 296 284 281 278 274 270 266 257 252 247 249 243 248 249 249 248 239 204 200 200 201 198 203 203 186 207 183 175
237 282 284 286 301 291 292 22 315 283 288 286 290 292 287 293 294 282 272 265 262 265 261 253 246 241 240 234 235 236 238 235 220 204 194 194 193 195 190 187 189 180 174 158
256 260 270 296 288 300 327 321 322 323 291 88 318 304 301 303 292 285 299 280 264 250 250 259 242 232 228 229 231 234 229 226 209 195 183 190 191 190 184 183 176 173 171 173
300 302 292 291 285 289 321 344 334 308 320 310 308 304 299 293 279 284 290 287 280 258 247 239 244 223 218 220 220 217 213 216 194 187 182 185 183 191 178 168 173 165 172 160
290 293 301 301 303 289 337 343 335 305 304 303 306 306 302 298 298 298 299 299 291 232 213 202 202 198 200 200 200 203 204 197 188 183 184 176 179 173 167 172 169 167 164 157
285 257 286 287 282 300 315 325 320 320 304 308 308 309 308 303 303 304 305 337 117 164 182 191 205 202 193 190 191 193 183 197 181 173 180 174 171 171 172 173 167 165 165 158
297 303 270 291 272 312 321 325 326 317 314 315 318 316 315 309 315 351 13 48 93 123 147 168 177 173 172 179 184 192 188 175 179 166 166 173 169 165 166 170 171 164 164 158
283 289 279 284 298 324 312 325 319 321 326 328 333 328 327 335 22 32 60 81 94 107 120 125 139 155 149 143 156 162 167 168 164 164 164 158 160 157 154 159 160 161 163 164
285 294 304 302 327 307 308 317 324 327 330 335 336 342 359 22 36 66 72 83 108 119 134 142 146 142 145 149 139 150 164 168 159 153 154 150 148 147 152 154 147 151 159 159
Wind_Speed_850mb
17 19 20 29 25 26 33 44 52 52 45 45 54 53 54 56 60 61 61 62 63 63 55 49 48 39 31 35 40 49 51 59 64 70 66 73 76 69 54 52 57 60 50 48
23 19 12 21 25 35 43 46 50 48 41 36 49 61 57 51 52 64 63 66 66 64 60 58 55 47 39 34 39 44 49 51 65 70 73 66 69 61 55 51 62 63 61 56
21 25 20 24 34 40 37 38 40 44 46 45 49 60 39 36 34 51 65 69 69 71 67 63 58 58 48 38 39 42 47 50 62 72 70 66 73 50 51 52 57 68 64 60
18 12 26 34 36 31 34 33 43 46 43 39 39 48 49 43 40 34 44 55 61 61 65 64 64 63 59 50 37 37 41 48 52 70 69 74 56 63 58 58 56 67 69 62
16 28 36 33 22 26 37 35 38 49 47 48 49 26 39 33 35 23 17 23 32 40 49 57 61 65 66 61 51 43 41 45 52 58 67 74 60 55 50 53 67 62 65 60
31 35 30 20 27 25 38 33 38 50 27 18 30 16 21 18 20 15 9 9 7 27 30 40 51 55 62 66 59 51 46 46 49 56 65 74 64 61 52 53 57 61 55 69
39 13 10 18 28 37 31 26 16 9 9 21 20 22 22 35 24 18 19 24 13 11 15 23 38 45 50 56 61 56 49 46 46 51 60 73 70 67 66 67 62 59 52 55
20 34 9 18 45 45 36 19 11 16 24 39 40 18 13 34 27 18 19 24 19 11 3 9 19 29 36 46 49 54 52 47 46 48 56 58 65 67 69 62 60 52 52 52
26 22 47 36 17 22 18 20 20 14 37 27 18 27 29 8 6 4 11 10 12 4 2 6 2 6 19 26 30 41 50 49 46 44 46 47 54 63 73 69 73 63 57 54
24 30 27 15 43 13 21 15 12 7 11 26 23 36 26 9 22 8 4 3 4 6 1 7 7 7 6 10 18 26 30 47 48 46 45 42 46 68 75 79 78 85 64 55
30 9 25 45 34 39 21 9 13 9 12 19 30 17 22 15 27 35 7 9 14 14 13 15 14 14 17 13 10 15 22 34 45 47 45 44 49 62 72 67 73 88 93 87
19 10 32 46 44 29 23 31 27 11 25 27 25 38 41 30 20 27 39 19 21 23 25 25 23 23 22 21 19 12 11 25 39 45 46 47 47 64 77 71 69 76 96 85
5 7 18 27 13 12 22 35 35 35 29 41 27 28 35 35 38 51 52 50 43 38 38 42 41 36 35 32 27 23 15 13 32 41 46 46 42 58 66 56 109 96 77 88
47 18 29 30 45 48 53 53 45 36 15 39 38 56 49 49 51 43 49 57 60 65 66 55 58 54 43 40 34 30 25 16 22 40 49 48 40 46 63 68 57 77 79 74
10 25 38 45 48 51 57 59 52 41 40 19 41 50 54 51 48 47 63 62 56 61 70 71 71 69 59 50 43 34 29 20 18 39 49 50 42 52 57 58 54 49 58 73
8 19 32 48 47 49 53 52 35 26 29 38 45 60 56 47 55 53 54 60 69 70 78 81 80 73 65 57 49 39 33 26 17 35 49 52 57 65 71 60 42 27 73 72
18 13 19 39 39 49 31 6 18 29 31 23 37 65 57 49 43 49 65 73 73 74 75 76 72 67 63 57 49 42 35 31 22 35 52 60 66 64 64 68 49 44 62 86
18 24 20 29 42 31 30 24 6 21 33 51 54 55 49 49 62 80 83 90 93 92 90 87 78 67 62 57 51 43 39 36 28 40 55 67 72 68 68 53 53 62 80 91
21 21 13 11 24 45 27 9 7 19 52 40 30 34 43 67 73 81 73 75 74 69 66 73 78 77 65 56 46 41 41 38 35 46 62 77 76 78 78 69 73 92 93 87
14 20 20 24 27 23 20 25 46 40 39 8 42 47 50 50 33 45 57 52 56 55 56 44 46 65 76 69 57 50 47 40 44 55 69 80 84 91 96 94 102 98 86 78
21 23 21 23 23 29 22 42 48 14 32 70 74 67 66 42 50 96 102 97 86 70 71 62 47 52 62 62 57 54 45 45 52 63 85 80 98 88 104 111 113 104 99 92
14 12 15 15 30 19 54 33 14 26 60 77 86 82 79 86 95 88 84 70 46 40 42 48 37 38 45 52 53 51 46 48 54 83 86 96 99 114 116 119 116 110 98 102
9 9 15 14 20 57 63 39 34 64 67 82 86 93 90 90 89 83 58 25 6 29 36 45 37 32 38 46 52 47 48 48 85 93 90 101 107 119 121 125 121 91 108 114
21 33 18 30 23 41 51 47 63 69 74 90 89 88 85 81 79 28 16 12 20 25 26 27 28 30 34 41 43 47 57 85 88 98 101 100 112 118 120 124 120 122 119 115
34 29 26 33 43 45 38 56 66 77 88 81 88 84 80 58 25 28 26 29 29 29 29 28 36 37 41 59 72 83 94 93 94 94 97 104 109 111 111 118 127 125 119 113
17 21 18 26 27 20 48 69 71 72 82 85 79 78 63 42 23 26 33 31 34 37 38 37 37 41 49 69 81 89 86 84 101 110 113 107 106 107 118 119 109 107 114 106
Wind_Direction_850mb
318 294 296 325 311 300 295 290 291 291 297 295 287 284 279 278 272 263 261 257 248 249 247 241 234 234 238 225 225 227 220 218 214 211 207 210 211 206 201 203 207 216 204 204
288 283 346 300 292 293 295 292 289 298 307 306 296 285 285 281 271 264 259 255 247 246 241 239 233 231 229 228 228 225 218 220 212 213 212 214 214 205 206 206 211 214 213 212
301 301 313 292 303 300 294 290 300 305 304 289 284 280 285 287 270 259 254 252 251 243 239 233 230 226 224 225 220 216 218 214 212 213 214 214 213 198 198 203 207 208 210 210
290 311 299 307 302 309 302 315 305 295 300 296 307 291 292 288 281 270 265 252 247 239 231 228 224 222 221 220 221 217 215 212 216 212 214 207 202 203 206 202 201 210 211 209
270 313 315 305 310 318 299 306 302 289 286 287 282 267 290 281 272 289 274 257 244 230 225 217 217 218 218 219 218 221 214 212 210 212 212 215 210 210 209 203 205 204 207 211
272 278 276 294 309 290 302 291 296 280 276 276 279 309 301 316 345 337 346 26 328 220 213 214 215 217 219 219 219 219 218 216 211 211 219 213 212 204 205 198 201 200 200 208
315 264 247 286 302 304 304 310 296 274 223 274 339 293 295 305 318 318 315 296 278 225 231 213 214 219 221 221 222 222 220 219 214 213 213 218 219 214 208 205 197 195 192 199
313 314 354 317 304 296 297 298 271 296 308 305 313 280 309 331 308 279 300 269 244 230 316 256 232 224 226 225 226 227 220 219 218 214 216 217 223 220 208 198 191 192 191 197
317 288 317 303 322 307 308 269 293 283 268 265 251 252 241 198 76 93 49 25 208 193 358 22 5 233 237 238 228 231 224 219 218 215 217 217 229 223 212 207 202 198 209 206
298 301 304 287 311 279 238 275 277 222 281 298 294 307 293 17 348 42 84 35 171 192 322 27 22 358 323 267 243 235 222 217 218 219 221 219 223 223 221 216 208 201 201 204
312 248 274 301 291 300 279 249 236 274 273 287 299 285 19 341 311 305 317 277 286 289 290 315 326 330 340 335 290 253 232 215 214 217 221 221 218 218 208 212 202 188 201 208
322 276 281 298 289 268 285 287 286 262 278 289 290 283 279 292 313 322 303 274 267 276 279 286 300 311 313 321 320 316 290 219 216 216 214 219 219 213 217 218 214 202 204 201
301 265 298 299 293 183 285 302 290 282 280 272 265 271 298 303 300 290 289 281 264 265 271 280 285 290 296 303 301 301 307 264 217 214 216 219 214 211 216 222 207 201 195 195
289 260 263 276 289 304 297 293 282 271 265 286 282 290 301 295 290 295 295 290 284 283 280 273 275 279 281 285 287 285 289 297 236 214 216 220 211 196 194 188 206 196 196 194
266 275 293 288 288 288 285 287 295 289 276 273 287 290 293 305 310 305 300 294 286 278 268 266 269 272 272 271 275 278 273 277 262 216 212 213 208 189 195 190 192 204 219 196
251 285 296 287 286 290 304 303 294 291 286 284 286 289 290 309 299 295 288 280 274 269 269 266 264 263 262 263 261 265 264 264 258 217 210 203 198 194 199 195 191 224 208 210
267 261 288 289 302 308 291 356 300 285 290 279 280 290 301 294 292 295 291 283 278 275 270 265 262 257 256 249 251 254 258 256 251 215 205 203 195 200 186 196 201 223 204 179
249 262 273 287 305 296 326 3 315 250 267 284 291 287 290 293 296 284 281 278 274 270 266 257 252 247 249 243 248 249 249 248 239 204 200 200 201 198 203 203 186 207 183 175
237 282 284 286 301 291 292 22 315 283 288 286 290 292 287 293 294 282 272 265 262 265 261 253 246 241 240 234 235 236 238 235 220 204 194 194 193 195 190 187 189 180 174 158
256 260 270 296 288 300 327 321 322 323 291 88 318 304 301 303 292 285 299 280 264 250 250 259 242 232 228 229 231 234 229 226 209 195 183 190 191 190 184 183 176 173 171 173
300 302 292 291 285 289 321 344 334 308 320 310 308 304 299 293 279 284 290 287 280 258 247 239 244 223 218 220 220 217 213 216 194 187 182 185 183 191 178 168 173 165 172 160
290 293 301 301 303 289 337 343 335 305 304 303 306 306 302 298 298 298 299 299 291 232 213 202 202 198 200 200 200 203 204 197 188 183 184 176 179 173 167 172 169 167 164 157
285 257 286 287 282 300 315 325 320 320 304 308 308 309 308 303 303 304 305 337 117 164 182 191 205 202 193 190 191 193 183 197 181 173 180 174 171 171 172 173 167 165 165 158
297 303 270 291 272 312 321 325 326 317 314 315 318 316 315 309 315 351 13 48 93 123 147 168 177 173 172 179 184 192 188 175 179 166 166 173 169 165 166 170 171 164 164 158
283 289 279 284 298 324 312 325 319 321 326 328 333 328 327 335 22 32 60 81 94 107 120 125 139 155 149 143 156 162 167 168 164 164 164 158 160 157 154 159 160 161 163 164
285 294 304 302 327 307 308 317 324 327 330 335 336 342 359 22 36 66 72 83 108 119 134 142 146 142 145 149 139 150 164 168 159 153 154 150 148 147 152 154 147 151 159 159